Tucson, AZ

5:57 AM MST on August 20, 2019 (GMT -0700)
Tucson International

Weather History for KTUS - May, 2019

Change the Weather History Date:

Friday, May 17, 2019

  Actual Average Record
Temperature  
Mean Temperature 69 °F 76 °F  
Max Temperature 80 °F 92 °F 103 °F (2003)
Min Temperature 58 °F 61 °F 44 °F (1911)
Degree Days  
Heating Degree Days 0 0  
Month to date heating degree days 0 3  
Since 1 July heating degree days 1408 1509  
Cooling Degree Days 4 11  
Month to date cooling degree days 124 156  
Year to date cooling degree days 304 310  
Growing Degree Days 18 (Base 50)    
Moisture  
Dew Point 33 °F    
Average Humidity 27    
Maximum Humidity 52    
Minimum Humidity 8    
Precipitation  
Precipitation 0.00 in 0.01 in 0.11 in (1975)
Month to date precipitation 1.21 0.12  
Year to date precipitation 5.02 2.96  
Sea Level Pressure  
Sea Level Pressure 29.79 in    
Wind  
Wind Speed 8 mph (West)    
Max Wind Speed 17 mph    
Max Gust Speed 28 mph    
Visibility 10 miles    
Events      
T = Trace of Precipitation, MM = Missing Value Source: NWS Daily Summary

Daily Weather History Graph

Daily Weather History Graph

Search for Another Location

Airport or City:

Astronomy

May. 17, 2019 Rise Set
Actual Time 5:24 AM MST 7:15 PM MST
Civil Twilight 4:57 AM MST 7:42 PM MST
Nautical Twilight 4:25 AM MST 8:15 PM MST
Astronomical Twilight 3:50 AM MST 8:50 PM MST
Moon 6:14 PM MST (5/17) 4:48 AM MST (5/17)
Length of Visible Light 14h 44m
Length of Day
13h 50m
Waxing Gibbous, 99% of the Moon is Illuminated
May 17
Waxing Gibbous
May 18
Full
May 26
Last Quarter
Jun 3
New
Jun 9
First Quarter

Hourly Weather History & Observations

Time (MST) Temp. Dew Point Humidity Pressure Visibility Wind Dir Wind Speed Gust Speed Precip Events Conditions
12:53 AM 66.0 °F 37.0 °F 34% 29.76 in 10.0 mi South 6.9 mph - N/A   Clear
1:53 AM 64.9 °F 37.0 °F 36% 29.75 in 10.0 mi SSE 8.1 mph - N/A   Clear
2:53 AM 64.0 °F 43.0 °F 46% 29.74 in 10.0 mi South 6.9 mph - N/A   Clear
3:53 AM 63.0 °F 42.1 °F 46% 29.74 in 10.0 mi SSE 4.6 mph - N/A   Clear
4:53 AM 62.1 °F 44.1 °F 52% 29.75 in 10.0 mi West 4.6 mph - N/A   Partly Cloudy
5:53 AM 57.9 °F 34.0 °F 41% 29.80 in 10.0 mi NNW 12.7 mph 28.8 mph N/A   Clear
6:53 AM 60.1 °F 30.0 °F 32% 29.83 in 10.0 mi NNW 11.5 mph - N/A   Clear
7:53 AM 62.1 °F 30.9 °F 31% 29.85 in 10.0 mi NNW 6.9 mph - N/A   Clear
8:53 AM 66.0 °F 35.1 °F 32% 29.84 in 10.0 mi Calm Calm - N/A   Scattered Clouds
9:53 AM 69.1 °F 37.0 °F 31% 29.84 in 10.0 mi ENE 6.9 mph - N/A   Clear
10:53 AM 69.1 °F 39.9 °F 35% 29.84 in 10.0 mi NNW 10.4 mph - N/A   Overcast
11:53 AM 73.0 °F 42.1 °F 33% 29.83 in 10.0 mi Variable 4.6 mph - N/A   Scattered Clouds
12:53 PM 75.9 °F 39.9 °F 27% 29.78 in 10.0 mi South 4.6 mph - N/A   Scattered Clouds
1:53 PM 75.9 °F 36.0 °F 23% 29.78 in 10.0 mi West 13.8 mph 18.4 mph N/A   Clear
2:21 PM 79.0 °F 34.0 °F 20% 29.88 in 10.0 mi West 12.7 mph 21.9 mph N/A   Clear
2:53 PM 79.0 °F 33.1 °F 19% 29.75 in 10.0 mi West 12.7 mph 21.9 mph N/A   Clear
3:00 PM 79.0 °F 33.1 °F 19% 29.87 in 10.0 mi West 8.1 mph 19.6 mph N/A   Clear
3:53 PM 79.0 °F 30.9 °F 17% 29.74 in 10.0 mi WSW 11.5 mph 24.2 mph N/A   Clear
4:21 PM 79.0 °F 30.0 °F 17% 29.84 in 10.0 mi North - - N/A   Partly Cloudy
4:53 PM 79.0 °F 28.0 °F 15% 29.73 in 10.0 mi NW 9.2 mph 24.2 mph N/A   Partly Cloudy
5:53 PM 78.1 °F 26.1 °F 15% 29.74 in 10.0 mi NW 16.1 mph 27.6 mph N/A   Clear
6:53 PM 75.0 °F 23.0 °F 14% 29.75 in 10.0 mi WNW 8.1 mph 18.4 mph N/A   Clear
7:53 PM 73.0 °F 21.9 °F 15% 29.77 in 10.0 mi West 11.5 mph - N/A   Clear
8:53 PM 71.1 °F 25.0 °F 18% 29.79 in 10.0 mi NW 11.5 mph - N/A   Clear
9:53 PM 68.0 °F 25.0 °F 20% 29.80 in 10.0 mi NW 4.6 mph - N/A   Clear
10:53 PM 63.0 °F 28.0 °F 27% 29.82 in 10.0 mi WSW 5.8 mph - N/A   Clear
11:53 PM 62.1 °F 28.0 °F 28% 29.82 in 10.0 mi SSW 4.6 mph - N/A   Clear